CZ-4 DEB, 26158

Orbit data source: Space-Track

CZ-4 DEB, 26158 is space debris in SSO originally from a launch on Thu, 14 Oct 1999 UTC launched from the Taiyaun Space Center, China (TSC). Debris objects in space refer to the collection of defunct objects orbiting the Earth. Examples of debris include non-operational satellites, rocket bodies, and fragments generated from explosions, collisions, or faulty payload assembly.

Loading next visibility...
Identifier
26158, 1999-057AU
Orbit
SSO
Country
Flag of CNCN / PRC
Related business
Manufacturer
Unknown
Mission
Spacecraft
Bus & Motor
Unknown
Mass
Unknown
Launch date (UTC)
1999-10-14 (26 years ago)
Launch vehicle
Unknown
Launch site
Taiyaun Space Center, China (TSC)
Object type
Payload
Rocket body
Debris
Shape & HBR
Unknown shape, 0.2 m
Radar Cross Section
Medium (>0.1 m² and <1 m²)

Expand to show TLE details & history
Last TLE update: 12 hours ago

TLE from 12 hours ago
0 CZ-4 DEB
1 26158U 99057AU  26036.66441913  .00001972  00000-0  67097-3 0  9994
2 26158  98.9685 101.8384 0176287  22.8190  99.0968 14.29380938334959
Epoch: 2026-02-05T15:56Z
TLE epoch observation values (Epoch: 2026-02-05T15:56:45.812Z)
Latitude
55.16902°
Longitude
-80.12696°
Altitude
825.064 km
Speed
7.434 km/s
True Right ascension
19h 39m 30s
True Declination
55° 00' 33"
Sunlit
Object was in daylight at epoch
Visualization orbit readout
Latitude
Unknown
Longitude
Unknown
Altitude
Unknown
Speed
Unknown
Apparent Right ascension
Unknown
Apparent Declination
Unknown
Sunlit
N/A
Visualization observer readout
Local Sidereal Time
06:08:44
Azimuth
Unknown
Elevation
Unknown
Doppler factor
Unknown
Orbital elements
Apogee altitude
917.34 km
Perigee altitude
664.576 km
Semi-major axis
7,169.095 km
Eccentricity
0.01763
Inclination
98.9685°
RAAN
101.8384°
Arg. of periapsis
22.819°
True anomaly
101.08417°
Mean anomaly
99.0968°
Eccentric anomaly
100.09122°
Mean motion
3.57558 °/min
Orbital period
100.68 mins
BSTAR
0.00067097
Loading maneuver chart data...
Computing Atmospheric mass density...
Loading historical data...
Loading historical data...
Loading historical data...
Loading historical data...
Loading historical data...
Loading historical data...
Loading historical data...

Documentation

Showing up to 5 results
|